Regional Weather Roundup
Issued by NWS Kansas City/Pleasant Hill, MO

Home | Current Version | Previous Version | Graphics & Text | Print | Product List | Glossary Off
Versions: 1 2 3 4 5 6 7 8 9 10 11 12 13 14 15 16 17 18 19 20 21 22 23 24 25 26 27 28 29 30 31 32 33 34 35 36 37 38 39 40 41 42 43 44 45 46 47 48 49 50

000
ASUS43 KEAX 210011
RWREAX

WEATHER ROUNDUP FOR EASTERN KANSAS AND NORTHWEST MISSOURI
NATIONAL WEATHER SERVICE KANSAS CITY/PLEASANT HILL MO
700 PM CDT WED AUG 20 2014

KSZ040-057-103>105-MOZ028-029-037-043-210100-
...KANSAS CITY METROPOLITAN AREA...

CITY           SKY/WX    TMP DP  RH WIND       PRES   REMARKS
K.C. INTL      MOSUNNY   88  73  61 S9        29.83F HX  95
6HR MIN TEMP:  88; 6HR MAX TEMP:  92;

K.C. DOWNTOWN  SUNNY     91  70  49 S13       29.81F HX  96
6HR MIN TEMP:  91; 6HR MAX TEMP:  94;

LEES SUMMIT    SUNNY     89  71  55 S8        29.85F HX  95
6HR MIN TEMP:  88; 6HR MAX TEMP:  92;

OLATHE - IXD   SUNNY     90  70  51 S15       29.84F HX  95
6HR MIN TEMP:  90; 6HR MAX TEMP:  95;

OLATHE - OJC   SUNNY     88  72  58 S12       29.83F HX  94
6HR MIN TEMP:  87; 6HR MAX TEMP:  93;

LAWRENCE       SUNNY     91  71  51 S15       29.81S HX  97

$$

MOZ001>008-011>017-020>025-030>033-038>040-044>046-053-054-210100-
...NORTHERN AND CENTRAL MISSOURI...

CITY           SKY/WX    TMP DP  RH WIND       PRES   REMARKS
ST. JOSEPH     PTSUNNY   87  74  64 SE12      29.81F HX  95
6HR MIN TEMP:  87; 6HR MAX TEMP:  92;

MOSBY          PTCLDY    86  73  66 SE6       29.82F HX  93
WHITEMAN AFB   MOSUNNY   85  68  56 S7        29.86F
6HR MIN TEMP:  85; 6HR MAX TEMP:  92;

CLINTON        SUNNY     88  75  66 S8        29.87F HX  97
SEDALIA        SUNNY     85  72  65 S6        29.88F HX  91
6HR MIN TEMP:  85; 6HR MAX TEMP:  93; 6HR PCP: TRACE;

WARSAW         NOT AVBL
MARSHALL       SUNNY     90  77  66 SE8       29.87F HX 102
CHILLICOTHE      N/A     88  74  63 S5        29.86F HX  96
6HR MIN TEMP:  85; 6HR MAX TEMP:  90;

MOBERLY        SUNNY     88  73  62 SE5       29.89F HX  96
KIRKSVILLE     SUNNY     85  76  74 S6        29.89F HX  94
6HR MIN TEMP:  82; 6HR MAX TEMP:  88;


$$

MOZ041-047>049-056>058-063>065-088>090-097-210100-
...EASTERN AND SOUTHERN MISSOURI...

CITY           SKY/WX    TMP DP  RH WIND       PRES   REMARKS
ST. LOUIS INTL PTCLDY    86  74  67 E7        29.92F HX  94
6HR MIN TEMP:  83; 6HR MAX TEMP:  91;

SPIRIT OF STL  PTCLDY    85  74  69 VRB5      29.90S HX  92
COLUMBIA       PTCLDY    78  75  90 SE7       29.90F
JEFFERSON CITY MOCLDY    80  74  81 CALM      29.89F
MEXICO         PTCLDY    90  81  74 E5        29.89F HX 108
HANNIBAL       CLEAR     86  72  62 SE3       29.89F HX  92
ROLLA          CLOUDY    75  69  81 CALM      29.93R
LEBANON        PTSUNNY   90  63  40 SW14      29.93S HX  90
OSAGE BEACH    PTSUNNY   82  70  65 CALM      29.90S
SPRINGFIELD    MOSUNNY   88  63  43 SW14      29.92F
BRANSON        MOSUNNY   91  61  35 S7        29.97F HX  91
NEVADA         SUNNY     88  66  48 S13G18    29.87F HX  90
JOPLIN         SUNNY     88  65  46 S16       29.90F HX  90
WEST PLAINS    PTCLDY    88  64  44 S7        29.95F

$$

IAZ060-094-KSZ022-034>040-054-083-096-NEZ052-066-093-210100-
...KANSAS...SOUTHEAST NEBRASKA AND IOWA...

CITY           SKY/WX    TMP DP  RH WIND       PRES   REMARKS
TOPEKA         SUNNY     93  70  46 S14G21    29.80S HX  99
6HR MIN TEMP:  92; 6HR MAX TEMP:  96;

MANHATTAN      MOSUNNY   93  69  45 S13       29.77S HX  98
EMPORIA        SUNNY     91  69  48 S14       29.82S HX  96
CHANUTE        SUNNY     90  65  43 S18       29.86F HX  92
WICHITA        MOSUNNY   91  66  43 S15       29.80S HX  93
OMAHA          MOSUNNY   88  73  61 SE21      29.77F HX  95
LINCOLN        MOSUNNY   91  68  46 S15       29.76S HX  95
FALLS CITY     MOSUNNY   88  77  69 SE10      29.78F HX 100
LAMONI         SUNNY     84  75  74 SE8       29.86F HX  92
DES MOINES     PTSUNNY   83  73  72 S12       29.82F

$$



USA.gov is the U.S. government's official web portal to all federal, state and local government web resources and services.